This is the latest recevied weather packets stored in our database for station/object WV6L-13. If no packets are shown the sender has not sent any weather packets the latest 10 day(s).
| Time | Temp. | Humidity | Pressure | Rain* | Wind** | Luminosity | Snow |
|---|---|---|---|---|---|---|---|
| 1777604695 | 23.33° C | 20% | 921.7 hPa | - | - | - | - |
| 1777604395 | 23.33° C | 20% | 921.8 hPa | - | - | - | - |
| 1777604095 | 23.89° C | 19% | 921.8 hPa | - | - | - | - |
| 1777603795 | 24.44° C | 19% | 921.8 hPa | - | - | - | - |
| 1777603195 | 25° C | 18% | 921.7 hPa | - | - | - | - |
| 1777602895 | 25° C | 18% | 921.6 hPa | - | - | - | - |
| 1777602595 | 25° C | 18% | 921.6 hPa | - | - | - | - |
| 1777602295 | 25.56° C | 18% | 921.6 hPa | - | - | - | - |
| 1777601995 | 25.56° C | 18% | 921.3 hPa | - | - | - | - |
| 1777601696 | 25.56° C | 18% | 921.4 hPa | - | - | - | - |
| 1777601395 | 26.11° C | 17% | 921.1 hPa | - | - | - | - |
| 1777600796 | 26.67° C | 17% | 921.2 hPa | - | - | - | - |
| 1777586996 | 27.22° C | 17% | 922.1 hPa | - | - | - | - |
| 1777586696 | 26.67° C | 17% | 922.4 hPa | - | - | - | - |
| 1777586396 | 27.22° C | 17% | 922.5 hPa | - | - | - | - |
| 1777585496 | 27.78° C | 17% | 922.7 hPa | - | - | - | - |
| 1777584295 | 26.67° C | 17% | 922.8 hPa | - | - | - | - |
| 1777583996 | 27.78° C | 17% | 922.7 hPa | - | - | - | - |
| 1777583695 | 26.67° C | 17% | 922.8 hPa | - | - | - | - |
| 1777583395 | 27.78° C | 17% | 922.9 hPa | - | - | - | - |
| 1777583096 | 27.78° C | 17% | 923 hPa | - | - | - | - |
| 1777582795 | 26.67° C | 18% | 922.9 hPa | - | - | - | - |
| 1777582196 | 27.22° C | 17% | 923.2 hPa | - | - | - | - |
| 1777581895 | 27.22° C | 17% | 923 hPa | - | - | - | - |
| 1777581595 | 26.67° C | 18% | 923.3 hPa | - | - | - | - |
* Rain since midnight (hover to see other rain measurements)
** Current wind speed in m/s (hover to see current wind gust speed)